User: anonymous   Login
Location: Fort Wayne
(41.1310°N, 85.1290°W)
Time: 15:05:38
(UTC-05:00)
Language:

OPAL - Orbit

View from above orbital plane
View from above orbital plane
View from above satellite
View from above satellite

Ground track
Ground track

The orbit data is extracted from the following two-line orbital elements,

1 26063U 00004C   14353.09624664  .00000265  00000-0  10980-3 0  1372
2 26063 100.2260 173.3604 0036436 358.1513 001.9527 14.36462223780576
Epoch (UTC): 19 December 2014 02:18:35
Eccentricity: 0.0036436
inclination: 100.2260°
perigee height: 744 km
apogee height: 796 km
right ascension of ascending node: 173.3604°
argument of perigee: 358.1513°
revolutions per day: 14.36462223
mean anomaly at epoch: 1.9527°
orbit number at epoch: 78057

The dashed part of the orbit path shows where the satellite is in the earth's shadow,  

DLR